GFSNGP_925_temp_048.txt.gz
Temp
26 26 26 25 26 26 25 25 23 24 25 27 28 27 27 27 26 25 25 25 25 23 21 20 19 18 17 14 12 11 12 12 12 11 10 9 9 8 7 6 6 6 5 5
23 24 25 23 24 25 25 25 26 26 26 28 27 26 25 25 25 25 24 25 23 23 21 20 19 17 15 13 12 12 12 11 10 9 9 9 8 7 7 6 6 5 5 4
20 21 21 18 22 23 24 26 25 23 25 27 26 26 25 24 24 24 23 23 22 22 21 19 18 16 14 13 13 11 10 9 9 9 8 7 7 6 6 6 5 5 3 2
18 15 17 23 25 25 23 25 25 25 25 25 23 23 24 24 23 23 23 22 22 21 20 18 16 15 14 13 11 10 9 9 9 8 7 7 7 6 6 5 5 4 2 2
16 19 22 23 24 23 23 23 24 23 23 24 23 22 22 23 22 21 21 21 21 19 18 16 15 14 12 11 10 9 9 8 8 7 6 7 6 6 5 5 4 3 2 1
17 17 15 22 22 23 23 20 23 23 22 22 22 19 19 21 21 21 20 20 19 16 15 14 12 11 11 9 8 8 8 7 7 5 6 6 6 5 5 4 4 2 1 0
16 16 19 23 22 22 19 19 21 21 21 21 20 18 18 19 19 19 19 18 15 14 13 11 9 8 8 7 8 8 7 5 5 5 5 5 5 5 4 4 3 1 0 -0
17 14 15 22 21 19 20 21 20 20 20 19 19 19 18 18 18 18 15 14 13 12 9 8 8 7 7 6 6 5 5 4 5 5 5 5 4 4 4 3 2 1 0 -1
19 18 21 22 21 21 20 19 19 19 19 19 18 19 18 17 16 15 13 10 8 7 6 5 5 5 6 6 5 5 4 4 4 4 4 4 4 4 3 2 1 0 0 -1
20 22 22 21 19 18 18 17 18 18 17 17 17 17 17 16 14 11 8 6 5 5 5 6 6 5 4 5 4 4 4 3 3 4 4 3 3 3 3 2 1 0 -0 -1
20 22 20 18 16 16 16 16 16 16 15 15 16 15 14 10 7 5 5 5 5 5 4 4 4 5 5 5 4 4 4 4 3 3 3 3 3 3 2 2 1 0 -0 -1
18 17 17 14 14 15 14 14 14 13 10 10 10 8 6 5 5 5 4 3 3 4 5 6 6 5 5 5 5 4 4 3 3 3 2 2 2 2 1 1 0 0 0 -0
17 17 15 13 13 13 11 10 9 8 7 6 6 5 4 4 4 3 3 4 6 6 5 6 5 5 5 5 4 4 3 2 2 1 2 2 2 1 0 -0 -0 -0 -0 -1
15 15 13 13 10 10 8 7 6 6 6 6 5 5 5 5 3 5 6 6 6 6 5 5 5 5 5 5 4 4 4 3 2 2 1 1 2 1 -0 -1 -1 -1 -1 -1
13 13 12 10 9 7 7 7 7 6 5 6 6 7 7 7 7 7 6 6 5 5 5 4 3 3 3 3 2 3 3 3 2 2 2 2 1 0 -1 -2 -2 -2 -1 -1
11 11 10 9 7 7 7 6 6 7 7 6 5 5 5 5 5 5 5 3 2 1 1 1 1 2 1 2 2 2 2 2 3 3 2 1 -1 -1 -2 -2 -1 -1 -1 -1
9 7 7 7 7 7 7 7 6 6 5 4 2 1 1 1 3 2 2 1 0 -0 -0 -0 0 1 0 0 1 1 1 1 1 1 1 -0 -1 -2 -2 -2 -2 -2 -1 -1
9 7 8 7 7 6 6 5 4 3 2 1 0 -0 -1 -1 -0 -0 -1 -2 -1 -1 0 0 -0 -1 -1 -1 -1 -1 -1 -1 -1 -1 -1 -2 -2 -2 -2 -2 -2 -2 -2 -2
8 8 7 7 7 6 5 4 2 1 -0 -1 -1 -2 -2 -2 -2 -2 -2 -2 -2 -0 -2 -2 -3 -3 -2 -2 -1 -2 -2 -2 -2 -2 -2 -2 -2 -2 -2 -2 -2 -2 -3 -2
7 7 6 4 3 3 2 1 2 1 -2 -2 -2 -3 -3 -3 -3 -3 -3 -2 -1 -4 -4 -5 -5 -4 -4 -3 -4 -4 -3 -3 -3 -4 -2 -2 -2 -3 -3 -3 -3 -3 -3 -2
6 4 2 1 -0 -0 -1 -1 -1 -1 -3 -4 -4 -4 -5 -4 -3 -3 -3 -3 -3 -6 -6 -6 -6 -6 -7 -7 -6 -5 -4 -4 -4 -3 -3 -3 -3 -4 -4 -4 -5 -4 -5 -5
3 1 1 1 1 -0 -1 -2 -3 -4 -4 -4 -4 -5 -5 -4 -4 -4 -4 -5 -6 -7 -8 -7 -8 -9 -8 -7 -7 -6 -6 -6 -5 -5 -5 -5 -6 -6 -7 -7 -7 -7 -7 -7
2 1 0 1 1 -0 -2 -2 -3 -3 -4 -4 -5 -6 -6 -6 -5 -6 -6 -7 -8 -9 -9 -9 -10 -10 -10 -10 -9 -9 -9 -8 -9 -9 -8 -8 -8 -8 -8 -8 -9 -9 -9 -9
2 2 1 -0 -1 -0 -0 -2 -2 -2 -4 -4 -4 -6 -7 -6 -7 -7 -8 -9 -9 -10 -10 -10 -11 -12 -12 -12 -12 -12 -11 -11 -12 -12 -12 -11 -11 -11 -11 -11 -11 -11 -11 -11
1 0 -0 0 1 -0 -2 -3 -2 -3 -4 -5 -6 -7 -7 -7 -8 -9 -9 -10 -10 -10 -11 -11 -12 -12 -13 -13 -13 -13 -14 -13 -14 -14 -14 -14 -14 -13 -13 -14 -14 -14 -13 -13
1 0 -2 -2 -3 -3 -4 -4 -5 -5 -6 -6 -7 -8 -8 -8 -9 -9 -10 -10 -11 -11 -12 -12 -12 -13 -13 -14 -14 -14 -15 -15 -16 -16 -16 -16 -16 -15 -16 -16 -16 -15 -15 -15
-2 -1 -1 -2 -4 -5 -7 -7 -7 -8 -7 -9 -9 -10 -8 -9 -10 -10 -11 -11 -12 -12 -13 -13 -13 -14 -14 -15 -15 -15 -16 -16 -17 -16 -17 -17 -17 -18 -17 -17 -17 -16 -16 -16

GFSNGP_925_temp_051.txt.gz
Temp
22 22 23 24 23 22 23 21 18 19 21 22 22 21 22 21 22 23 22 20 19 17 15 16 16 15 13 12 12 12 12 11 10 9 9 9 9 8 8 7 7 6 5 5
21 22 20 20 21 22 21 22 22 22 22 23 21 21 20 21 21 20 20 20 18 16 16 15 15 13 12 12 12 12 10 10 9 9 9 8 8 7 7 7 6 6 5 4
18 17 18 15 19 20 21 21 22 21 20 19 19 19 19 18 18 20 19 18 19 17 17 16 14 13 12 12 11 10 9 9 9 9 8 8 8 7 6 6 5 5 4 3
13 13 14 18 22 22 22 20 20 19 19 18 18 17 17 16 16 17 17 17 16 14 13 13 13 13 12 10 9 9 9 8 8 8 7 7 6 6 5 5 5 4 4 3
12 12 16 19 22 22 20 19 19 19 19 19 19 16 15 16 16 16 15 14 13 13 12 12 11 11 10 9 9 8 8 7 7 7 5 6 4 5 5 5 5 4 3 2
11 12 12 16 21 21 22 15 18 17 17 16 17 12 13 15 15 14 14 13 12 10 9 9 8 8 8 7 7 7 6 6 6 5 5 4 5 5 5 5 4 4 3 1
8 9 12 19 20 21 15 14 18 17 16 15 15 13 14 15 12 12 12 9 8 7 6 7 7 7 6 6 6 6 6 6 6 5 4 5 5 4 4 4 4 3 2 1
11 12 13 19 19 16 15 16 15 15 15 15 15 15 14 13 10 8 7 6 5 5 5 6 6 7 7 6 6 6 6 5 4 4 4 4 4 4 4 3 3 2 1 1
13 12 15 16 15 14 14 14 15 14 13 14 14 15 12 9 7 6 5 5 5 5 5 6 6 6 5 5 5 5 5 4 4 4 3 3 4 3 3 3 2 2 1 1
16 18 15 14 14 14 14 13 13 12 12 13 13 13 9 7 5 5 5 5 5 6 6 5 5 5 5 5 5 5 4 4 3 3 3 3 3 3 2 3 2 2 1 0
16 14 13 13 13 13 12 12 10 9 8 8 8 6 5 5 5 5 5 5 4 4 4 5 5 5 5 5 5 5 4 4 4 3 3 3 2 2 2 2 1 1 0 0
11 13 12 11 11 11 10 9 8 7 6 6 5 5 5 5 4 4 3 4 4 4 4 5 5 5 5 5 5 5 4 4 4 3 3 2 2 2 2 1 1 1 -0 -0
13 12 10 9 9 8 7 7 6 6 5 4 4 3 3 3 3 4 4 4 4 5 5 5 5 5 4 3 3 3 3 3 3 3 2 2 2 1 1 2 1 1 0 -0
12 11 9 9 7 7 6 6 5 5 4 4 4 4 4 4 4 4 5 5 4 4 3 3 3 3 2 2 2 2 2 2 2 2 2 1 1 1 0 -0 -0 -1 -0 -0
9 10 8 7 6 6 6 5 5 4 4 4 5 5 5 4 4 3 2 2 2 2 1 1 0 0 0 0 0 0 1 1 0 0 -0 -0 -0 -0 -1 -1 -1 -2 -2 -1
9 8 6 6 7 6 5 4 3 5 4 3 2 2 2 2 2 1 0 -0 -1 -2 -0 -1 -1 -2 -2 -1 -1 -2 -1 -1 -1 -2 -2 -2 -1 -1 -1 -1 -1 -2 -2 -2
7 6 6 6 6 6 6 6 5 3 2 -0 -1 -1 -0 -0 -0 -1 -2 -2 -1 -1 -3 -3 -4 -4 -3 -3 -3 -3 -3 -3 -3 -2 -3 -2 -2 -2 -2 -2 -2 -2 -2 -2
7 7 7 6 5 4 4 2 1 -0 -1 -2 -2 -3 -3 -3 -3 -3 -3 -2 -2 -3 -4 -5 -5 -5 -5 -5 -5 -6 -5 -5 -4 -4 -4 -4 -4 -3 -2 -2 -2 -2 -2 -2
7 7 6 6 5 3 2 0 -1 -2 -2 -3 -2 -3 -3 -3 -3 -3 -3 -3 -6 -6 -6 -7 -6 -7 -7 -7 -7 -6 -6 -6 -5 -5 -4 -4 -4 -4 -3 -3 -3 -3 -3 -3
4 3 3 1 1 1 -0 -1 -2 -3 -3 -3 -4 -4 -4 -4 -4 -3 -4 -5 -7 -8 -7 -7 -8 -9 -9 -9 -8 -8 -8 -8 -7 -6 -6 -6 -5 -5 -5 -5 -6 -6 -6 -6
2 1 -0 -1 -2 -1 -1 -2 -3 -4 -4 -4 -5 -5 -4 -5 -4 -5 -6 -7 -8 -9 -8 -9 -10 -11 -11 -11 -10 -10 -11 -10 -10 -10 -9 -9 -8 -7 -8 -8 -8 -9 -9 -9
1 -0 -1 -1 -2 -2 -3 -3 -3 -4 -4 -5 -5 -6 -6 -6 -6 -6 -7 -9 -9 -9 -10 -10 -11 -11 -12 -12 -12 -13 -12 -12 -13 -13 -13 -12 -11 -11 -10 -10 -11 -11 -11 -11
0 -0 -1 -2 -2 -3 -3 -3 -3 -4 -4 -5 -6 -6 -7 -7 -7 -8 -9 -9 -10 -10 -10 -11 -12 -12 -12 -13 -14 -14 -14 -14 -15 -15 -15 -14 -14 -13 -13 -13 -13 -13 -13 -13
-0 -0 -1 -1 -2 -2 -3 -3 -4 -4 -4 -6 -7 -7 -7 -8 -8 -9 -9 -10 -10 -11 -11 -12 -12 -13 -13 -14 -14 -15 -15 -15 -16 -16 -16 -16 -16 -15 -15 -16 -15 -15 -15 -15
-0 -1 -1 -1 -2 -3 -3 -3 -5 -5 -6 -7 -7 -8 -8 -8 -9 -10 -10 -11 -11 -12 -12 -13 -13 -14 -14 -15 -15 -15 -16 -16 -17 -17 -17 -17 -18 -17 -18 -17 -17 -17 -16 -16
-2 -3 -3 -4 -5 -5 -6 -6 -7 -7 -7 -8 -9 -9 -9 -9 -10 -10 -11 -11 -12 -13 -13 -14 -14 -15 -15 -15 -16 -16 -17 -17 -17 -18 -18 -18 -19 -19 -19 -19 -19 -18 -18 -17
-3 -3 -5 -6 -6 -7 -7 -8 -8 -9 -9 -9 -9 -9 -10 -10 -11 -11 -12 -13 -13 -14 -14 -14 -15 -15 -16 -16 -16 -17 -17 -18 -18 -18 -19 -19 -20 -20 -20 -20 -20 -19 -19 -18

GFSNGP_925_temp_057.txt.gz
Temp
19 20 20 21 21 19 19 18 17 18 17 18 18 19 17 17 20 17 16 15 14 13 12 13 13 12 11 11 10 10 9 9 9 8 8 8 7 7 7 7 6 7 6 5
19 18 19 20 19 20 19 20 17 18 18 17 18 16 15 15 16 17 17 17 14 13 12 12 11 10 9 9 9 9 8 8 8 8 7 7 7 7 6 6 6 6 5 5
17 15 16 14 16 18 19 19 19 18 17 17 16 14 14 14 14 15 14 13 12 11 11 10 9 9 9 8 8 8 8 8 8 7 7 6 7 6 6 4 4 5 5 5
12 12 13 17 18 18 18 17 16 16 16 15 13 12 11 11 13 11 10 9 9 8 8 8 8 8 8 8 8 7 7 7 7 7 6 6 5 5 4 4 5 5 5 5
12 12 15 18 17 17 17 18 17 14 13 13 13 13 12 9 8 7 7 6 5 7 7 7 7 7 7 7 6 6 6 6 6 6 6 5 4 5 4 4 5 5 4 4
9 12 13 15 17 18 17 14 16 15 13 13 14 12 11 8 7 6 6 6 5 5 5 6 6 7 6 6 6 6 6 6 5 6 5 5 4 4 4 4 4 4 3 3
7 10 12 14 17 17 16 15 14 14 14 13 14 11 8 6 5 5 5 4 5 5 5 5 7 7 6 7 6 6 6 6 5 5 4 4 4 4 3 3 3 3 3 3
8 8 14 15 16 16 14 13 13 12 12 10 7 6 6 5 5 5 5 5 5 5 5 6 6 7 5 5 5 5 5 4 4 4 4 3 3 3 3 3 3 2 2 2
13 12 14 14 15 14 12 12 12 12 10 9 7 6 5 4 4 4 4 5 5 4 4 5 5 5 5 4 4 4 4 4 4 4 4 4 3 3 3 3 2 2 2 1
13 14 12 12 11 10 11 10 10 10 9 8 6 5 4 4 4 4 4 4 4 4 4 4 4 4 3 3 4 4 3 3 2 2 2 2 2 2 1 1 1 1 0 -1
11 11 12 11 9 8 7 7 6 6 7 6 5 4 4 4 3 4 4 4 4 4 3 2 2 2 2 2 2 2 1 1 1 1 0 0 -0 -0 -0 -0 -1 -1 -1 -1
11 12 11 10 7 7 7 6 6 5 4 5 5 4 4 3 4 4 3 3 2 1 1 1 0 -0 -0 -0 -0 -0 -1 -1 -2 -2 -2 -2 -2 -2 -2 -2 -2 -2 -2 -2
13 12 8 7 6 6 5 5 4 4 4 3 3 3 3 3 3 2 2 1 1 -0 -1 -1 -2 -2 -2 -2 -2 -2 -3 -3 -4 -4 -5 -5 -4 -4 -4 -4 -4 -3 -3 -3
8 8 6 6 5 4 4 4 3 3 3 3 2 2 1 1 1 0 -0 -1 -1 -2 -3 -3 -3 -4 -4 -4 -4 -4 -5 -5 -6 -6 -6 -6 -6 -6 -5 -5 -4 -4 -4 -4
6 7 6 4 4 3 3 3 3 2 1 1 1 1 1 -0 -1 -2 -1 -2 -3 -3 -4 -4 -5 -6 -6 -5 -6 -6 -7 -7 -7 -7 -7 -7 -7 -6 -6 -5 -5 -5 -5 -5
5 5 4 4 3 3 3 2 1 1 1 0 -0 -1 -1 -2 -2 -3 -3 -3 -4 -6 -6 -6 -7 -7 -7 -7 -8 -8 -8 -9 -9 -9 -8 -8 -7 -7 -7 -7 -7 -7 -7 -6
4 4 4 3 3 3 3 2 2 0 -1 -1 -2 -2 -2 -3 -3 -5 -6 -5 -6 -7 -7 -8 -8 -8 -9 -9 -10 -10 -10 -10 -10 -10 -10 -10 -10 -10 -9 -9 -8 -9 -9 -9
6 5 5 4 4 3 2 0 -1 -1 -2 -2 -2 -2 -3 -3 -4 -6 -6 -6 -7 -7 -8 -9 -9 -10 -10 -11 -11 -11 -11 -11 -12 -12 -12 -13 -13 -12 -12 -11 -11 -11 -11 -11
6 5 5 4 3 1 -0 -1 -2 -3 -3 -3 -3 -4 -4 -4 -5 -6 -7 -7 -8 -9 -9 -10 -10 -11 -11 -12 -12 -12 -12 -13 -13 -14 -14 -14 -14 -14 -14 -14 -14 -14 -14 -13
4 3 2 1 0 -1 -2 -3 -3 -3 -3 -3 -4 -5 -6 -6 -6 -7 -7 -9 -9 -10 -10 -11 -11 -12 -12 -13 -13 -13 -14 -15 -15 -15 -16 -16 -16 -16 -16 -16 -16 -16 -16 -15
1 1 -0 -1 -2 -3 -3 -3 -4 -4 -5 -4 -5 -6 -6 -6 -7 -7 -8 -9 -10 -10 -11 -11 -12 -12 -13 -13 -14 -14 -15 -16 -16 -16 -17 -17 -18 -17 -17 -17 -18 -17 -17 -17
-0 -1 -2 -2 -3 -3 -4 -4 -4 -5 -5 -5 -6 -6 -7 -8 -8 -9 -9 -9 -10 -11 -11 -12 -12 -13 -14 -14 -15 -15 -16 -16 -17 -17 -17 -18 -18 -18 -19 -19 -19 -19 -19 -18
-2 -2 -3 -3 -3 -4 -4 -4 -5 -5 -6 -6 -6 -7 -7 -8 -8 -9 -10 -10 -11 -11 -12 -12 -13 -14 -14 -15 -15 -16 -16 -17 -17 -18 -18 -19 -19 -19 -20 -20 -20 -20 -20 -19
-2 -2 -3 -4 -4 -5 -5 -6 -6 -6 -6 -7 -7 -8 -8 -9 -10 -10 -10 -11 -11 -12 -12 -13 -14 -15 -15 -15 -16 -16 -17 -17 -18 -18 -19 -19 -20 -20 -20 -20 -20 -20 -20 -20
-2 -3 -3 -4 -3 -4 -5 -6 -7 -8 -8 -9 -9 -8 -9 -9 -9 -11 -11 -12 -12 -13 -13 -14 -15 -15 -16 -16 -17 -17 -17 -18 -18 -19 -19 -20 -20 -20 -20 -20 -21 -21 -21 -20
-3 -4 -5 -5 -6 -6 -7 -7 -8 -8 -9 -9 -9 -10 -10 -10 -11 -11 -12 -13 -13 -14 -15 -15 -16 -16 -16 -17 -17 -17 -18 -18 -19 -19 -20 -21 -21 -21 -21 -21 -21 -21 -21 -21
-6 -7 -7 -8 -8 -8 -8 -8 -9 -9 -9 -10 -10 -10 -11 -11 -12 -13 -13 -14 -14 -15 -15 -16 -16 -17 -17 -18 -18 -18 -19 -19 -19 -20 -21 -21 -21 -21 -21 -21 -21 -21 -21 -21

GFSNGP_925_temp_063.txt.gz
Temp
18 19 19 20 20 18 19 20 20 21 19 21 21 21 20 18 17 18 18 18 17 16 15 14 13 11 10 9 9 8 8 7 6 6 6 7 6 5 5 5 5 5 5 5
18 17 18 19 19 18 18 19 19 18 18 19 19 17 17 16 17 16 14 14 15 15 14 12 11 10 9 9 8 8 8 6 7 7 7 6 5 5 5 4 4 4 5 4
18 16 17 16 17 18 18 18 19 19 20 17 17 17 15 14 14 13 12 11 11 11 11 10 9 8 8 7 7 7 7 6 5 6 5 4 4 4 4 4 4 4 3 3
15 13 16 20 17 18 19 19 18 17 17 17 17 13 11 11 13 11 10 10 9 8 7 7 7 7 7 7 6 6 5 5 5 4 4 4 4 4 4 4 4 3 3 4
15 16 17 18 17 18 18 21 18 18 17 15 13 13 12 8 9 8 7 7 6 6 6 6 6 6 6 6 5 5 5 5 5 5 4 5 5 4 4 4 4 3 3 3
12 16 17 18 18 16 18 19 18 17 15 14 13 16 16 8 7 6 6 6 6 5 6 6 6 6 6 5 5 5 5 5 5 5 5 4 4 4 3 3 3 3 2 2
12 15 16 16 16 16 18 20 16 16 15 14 15 14 10 7 6 6 5 5 5 5 5 5 6 6 5 5 5 4 4 5 5 4 3 3 3 3 2 1 2 2 1 1
11 13 17 15 16 18 18 14 15 14 13 13 8 7 7 6 6 6 5 5 5 5 5 4 5 5 5 4 3 4 4 3 2 2 2 2 2 1 0 -0 -0 -1 -1 -1
16 17 16 15 17 15 14 16 13 14 13 10 7 7 6 6 5 5 5 5 4 4 3 3 3 4 3 2 3 3 2 1 1 1 0 -0 -1 -1 -1 -1 -2 -2 -2 -2
15 16 15 14 13 12 13 13 13 12 11 10 8 6 6 5 5 5 5 4 3 3 2 1 0 0 0 1 1 1 -0 -1 -1 -2 -2 -2 -2 -3 -3 -3 -3 -3 -3 -3
14 14 13 13 12 12 11 9 9 10 10 9 7 6 6 5 5 4 3 3 2 1 0 -1 -1 -2 -1 -1 -0 -1 -2 -3 -3 -4 -4 -4 -4 -5 -5 -5 -5 -5 -4 -4
15 16 17 18 14 10 9 9 9 8 7 7 7 6 5 5 4 3 3 2 1 -0 -1 -3 -3 -3 -3 -2 -2 -3 -3 -4 -5 -5 -5 -5 -5 -5 -6 -6 -6 -6 -7 -7
15 12 9 8 7 8 8 7 7 7 6 5 5 5 4 3 3 2 1 1 -0 -2 -3 -4 -4 -5 -5 -5 -5 -5 -5 -6 -6 -7 -6 -7 -7 -6 -6 -6 -8 -8 -8 -8
8 9 9 8 8 6 6 5 4 4 4 4 4 3 2 2 1 1 -0 -2 -3 -4 -4 -4 -5 -6 -6 -6 -6 -7 -7 -8 -8 -7 -8 -8 -8 -8 -8 -8 -8 -8 -9 -10
6 7 7 5 5 4 4 4 3 3 3 2 2 2 1 1 -0 -2 -3 -3 -4 -4 -5 -5 -6 -7 -7 -7 -7 -8 -8 -8 -9 -9 -10 -10 -10 -10 -10 -10 -10 -10 -10 -11
5 5 5 4 4 4 4 3 3 2 2 2 1 1 -0 -2 -2 -3 -4 -4 -4 -5 -6 -7 -8 -8 -8 -8 -8 -9 -9 -11 -11 -10 -11 -11 -11 -11 -11 -11 -11 -12 -12 -13
5 4 3 3 3 3 3 3 2 2 1 0 -1 -2 -2 -3 -4 -5 -5 -6 -6 -8 -8 -8 -8 -9 -9 -9 -10 -10 -11 -11 -12 -12 -12 -13 -13 -13 -13 -13 -13 -14 -14 -15
6 6 6 5 3 2 2 1 0 -0 -1 -2 -3 -4 -4 -3 -4 -6 -7 -8 -8 -9 -9 -9 -10 -10 -11 -11 -11 -12 -13 -13 -13 -13 -14 -15 -15 -15 -15 -15 -15 -15 -16 -16
4 3 3 2 2 1 1 -0 -1 -3 -4 -4 -4 -4 -5 -5 -5 -7 -8 -8 -9 -8 -10 -10 -10 -11 -12 -12 -13 -13 -14 -14 -15 -15 -16 -16 -16 -17 -17 -17 -16 -17 -17 -17
3 2 1 0 -0 -1 -2 -3 -3 -4 -4 -4 -5 -5 -6 -7 -7 -7 -8 -8 -8 -9 -10 -11 -11 -12 -13 -13 -13 -14 -15 -15 -16 -16 -17 -17 -18 -18 -18 -18 -19 -18 -19 -19
0 -0 -1 -1 -2 -3 -3 -3 -4 -4 -5 -4 -4 -6 -7 -8 -7 -8 -8 -8 -10 -10 -11 -11 -12 -13 -13 -14 -14 -15 -15 -16 -17 -17 -18 -18 -19 -19 -19 -20 -20 -20 -20 -20
-2 -2 -3 -3 -3 -4 -5 -5 -4 -5 -5 -5 -6 -7 -7 -9 -9 -9 -9 -9 -10 -10 -11 -12 -12 -13 -13 -14 -15 -15 -16 -17 -17 -18 -18 -19 -19 -20 -20 -21 -21 -21 -21 -21
-2 -3 -3 -4 -4 -5 -6 -6 -6 -5 -6 -7 -7 -8 -8 -8 -9 -9 -9 -11 -11 -11 -12 -12 -13 -14 -14 -15 -15 -16 -16 -17 -17 -18 -18 -19 -20 -21 -21 -22 -22 -22 -22 -22
-3 -4 -5 -6 -5 -5 -5 -6 -7 -7 -7 -7 -8 -8 -8 -9 -10 -10 -10 -11 -11 -12 -12 -13 -14 -14 -15 -15 -16 -16 -17 -17 -18 -18 -19 -19 -20 -20 -21 -21 -21 -22 -22 -22
-4 -5 -5 -4 -5 -5 -6 -7 -8 -8 -9 -9 -9 -9 -9 -9 -9 -11 -11 -12 -12 -13 -13 -14 -15 -15 -16 -16 -17 -17 -17 -18 -18 -19 -19 -20 -20 -21 -21 -22 -22 -22 -22 -22
-6 -6 -6 -7 -7 -7 -7 -7 -8 -9 -9 -10 -10 -10 -10 -10 -11 -11 -12 -13 -13 -14 -14 -15 -15 -16 -17 -17 -17 -18 -18 -19 -19 -20 -20 -20 -21 -21 -22 -22 -22 -22 -22 -22
-7 -8 -8 -8 -9 -9 -9 -9 -9 -10 -11 -11 -11 -11 -11 -11 -12 -13 -13 -14 -14 -15 -15 -16 -16 -17 -17 -18 -18 -19 -19 -20 -20 -20 -21 -21 -21 -22 -22 -22 -22 -22 -22 -22

GFSNGP_925_temp_069.txt.gz
Temp
26 27 27 27 26 26 26 26 25 26 26 28 29 28 29 29 29 28 28 28 28 28 26 25 23 20 15 13 11 11 10 9 8 7 7 6 6 6 6 6 5 5 5 5
24 26 26 26 27 27 27 27 27 27 27 29 29 29 28 28 27 27 26 26 26 26 25 23 20 18 13 11 10 9 8 8 7 6 5 5 5 5 5 5 5 5 5 5
22 25 25 23 25 26 26 27 27 25 27 28 28 28 28 28 27 25 23 22 23 23 22 20 18 15 13 10 9 8 7 7 7 7 6 5 5 5 5 5 5 5 5 4
21 18 20 24 26 27 26 27 27 27 27 28 28 28 26 25 26 23 21 20 20 20 18 17 16 14 12 11 10 9 9 8 7 6 5 5 5 5 5 5 5 6 6 7
20 21 23 25 24 24 25 26 27 27 28 28 28 25 24 23 23 22 20 19 18 17 17 16 15 14 14 13 12 10 9 8 7 7 5 5 5 4 5 5 7 7 7 6
20 20 19 24 26 25 27 24 27 28 27 27 26 23 26 21 20 19 18 17 17 16 16 15 14 13 13 12 11 9 8 7 6 6 6 6 6 7 7 7 7 6 6 5
19 20 23 26 26 26 22 23 27 28 27 27 25 25 22 19 18 18 17 16 16 15 15 14 13 12 12 11 10 8 8 7 7 7 8 8 7 7 6 6 5 4 3 3
19 19 19 24 22 23 24 26 27 27 27 26 24 20 19 18 17 17 16 15 15 15 14 13 12 12 12 11 9 8 8 7 7 7 6 6 6 6 5 5 4 4 2 2
21 21 24 23 25 24 25 24 26 25 26 25 20 19 18 17 16 16 15 15 14 14 13 12 12 12 11 9 8 7 7 7 6 5 5 5 5 5 5 4 3 3 2 1
21 23 24 23 23 24 24 23 25 24 25 24 20 19 17 17 16 16 15 14 13 13 12 11 11 10 9 8 7 7 6 5 5 5 4 4 4 3 3 2 1 1 1 0
21 22 23 23 21 23 23 23 22 22 22 22 20 18 17 17 16 15 14 13 12 11 10 9 8 7 7 6 6 5 5 4 4 3 3 2 2 1 -0 -2 -3 -2 -2 -3
20 22 22 22 20 19 22 23 21 20 20 21 20 18 17 16 15 14 13 11 10 9 8 7 6 5 5 5 5 4 3 3 1 1 1 2 1 -0 -3 -3 -4 -5 -6 -7
21 19 19 18 16 17 18 20 21 20 20 19 19 18 16 15 14 12 11 10 9 7 6 5 4 3 3 2 3 3 2 0 -1 -0 0 -0 -1 -1 -0 -5 -5 -5 -6 -7
18 16 18 18 18 15 15 16 15 17 18 18 17 16 15 13 10 10 9 8 7 5 4 3 2 0 0 -0 -1 -1 -2 -2 -1 -1 -1 -2 -2 -3 -3 -3 -4 -4 -7 -7
17 16 16 15 15 14 14 14 14 14 15 14 14 13 12 11 10 9 7 5 4 3 1 0 -1 -1 -2 -2 -2 -2 -2 -3 -3 -4 -5 -5 -5 -5 -5 -5 -5 -5 -5 -6
16 15 15 15 14 13 13 13 13 12 12 12 11 11 9 9 7 5 3 2 0 -1 -4 -4 -4 -4 -3 -3 -3 -4 -6 -6 -6 -5 -5 -6 -6 -6 -5 -6 -6 -6 -6 -6
15 14 13 13 13 12 12 12 11 11 10 9 8 8 4 3 -1 -3 -4 -5 -6 -6 -7 -7 -7 -6 -6 -5 -4 -4 -5 -6 -7 -6 -6 -7 -7 -7 -7 -7 -7 -7 -7 -8
14 14 13 13 11 10 9 8 8 6 4 -0 -1 -2 -3 -3 -5 -6 -6 -7 -7 -8 -8 -8 -8 -7 -7 -7 -7 -7 -7 -7 -8 -8 -8 -8 -9 -9 -9 -9 -9 -9 -9 -9
9 8 8 7 5 4 1 -0 -1 -2 -2 -2 -3 -4 -4 -5 -5 -6 -7 -7 -7 -8 -9 -9 -9 -8 -9 -10 -9 -9 -9 -9 -9 -9 -9 -10 -10 -9 -9 -10 -10 -10 -11 -11
2 1 0 -1 -1 -1 -1 -2 -2 -3 -3 -4 -4 -5 -5 -6 -6 -6 -6 -6 -6 -7 -8 -9 -8 -9 -9 -11 -10 -9 -10 -10 -9 -10 -10 -11 -10 -10 -11 -11 -11 -12 -12 -12
-1 -1 -1 -1 -1 -2 -2 -2 -2 -2 -3 -4 -4 -5 -5 -6 -6 -6 -6 -6 -8 -8 -9 -9 -8 -9 -9 -10 -10 -10 -10 -10 -10 -10 -11 -11 -11 -11 -11 -12 -12 -13 -13 -13
-0 -0 -1 -1 -1 -2 -2 -3 -3 -4 -4 -5 -6 -6 -6 -6 -6 -7 -6 -6 -8 -9 -8 -8 -9 -11 -11 -11 -10 -10 -11 -11 -11 -11 -12 -12 -12 -12 -13 -13 -13 -14 -14 -15
-1 -1 -2 -2 -2 -3 -4 -4 -5 -5 -5 -5 -5 -4 -4 -4 -4 -4 -5 -7 -8 -9 -8 -10 -12 -13 -13 -12 -12 -12 -12 -12 -12 -12 -13 -13 -13 -14 -14 -14 -15 -15 -15 -16
-2 -2 -2 -2 -2 -2 -3 -4 -5 -6 -7 -6 -7 -6 -5 -5 -6 -7 -9 -9 -10 -10 -11 -12 -13 -14 -14 -13 -12 -13 -13 -13 -13 -14 -14 -14 -14 -15 -15 -15 -16 -16 -16 -17
-2 -2 -2 -2 -2 -2 -3 -4 -4 -4 -5 -6 -6 -7 -7 -8 -7 -8 -9 -11 -11 -11 -11 -13 -14 -15 -13 -13 -13 -14 -14 -14 -14 -15 -15 -15 -16 -16 -16 -16 -17 -17 -18 -18
-3 -3 -3 -3 -3 -3 -3 -4 -5 -5 -5 -6 -7 -8 -8 -9 -9 -10 -11 -11 -12 -12 -12 -13 -13 -14 -14 -14 -14 -15 -15 -15 -16 -16 -17 -17 -17 -17 -17 -17 -18 -18 -19 -19
-4 -4 -5 -5 -6 -6 -6 -6 -7 -8 -8 -7 -8 -9 -9 -10 -10 -11 -11 -12 -12 -12 -13 -13 -14 -14 -15 -16 -16 -16 -16 -16 -17 -17 -18 -18 -18 -18 -18 -19 -19 -20 -21 -21

GFSNGP_925_temp_075.txt.gz
Temp
21 24 25 24 23 23 23 23 21 22 22 23 23 25 24 25 23 24 24 24 23 21 19 16 14 13 13 11 12 12 11 11 10 11 11 11 11 10 10 10 9 8 8 7
19 22 24 23 23 23 23 24 24 23 23 24 24 25 25 25 23 23 23 23 23 21 18 16 14 11 11 10 10 10 10 9 9 9 9 9 9 8 8 7 7 7 7 6
18 20 21 18 21 24 24 24 23 22 22 24 24 25 26 24 24 22 21 21 21 19 16 14 12 10 9 9 10 10 9 8 8 8 8 7 7 7 6 6 6 6 6 6
15 16 18 21 24 24 23 24 24 25 24 25 24 25 23 22 21 20 20 20 18 15 13 12 10 9 9 9 8 8 7 7 6 6 6 6 6 6 6 6 6 6 6 6
16 17 19 21 23 23 23 21 24 25 24 24 25 23 23 22 21 19 18 17 15 14 12 11 10 10 9 8 8 7 7 6 6 6 5 6 6 5 6 6 6 6 6 5
14 15 16 19 21 24 24 19 24 25 23 23 23 19 19 20 18 17 16 16 15 13 11 11 10 10 9 9 8 7 6 6 6 5 6 5 6 6 6 6 6 6 5 5
12 13 15 21 23 23 20 17 23 24 23 22 21 18 18 17 17 16 16 16 16 13 12 11 11 10 10 9 8 7 7 6 6 6 6 6 6 6 6 6 5 5 3 2
13 14 14 20 22 21 18 19 23 23 23 21 18 17 16 16 15 15 15 15 15 14 13 12 12 11 10 9 9 7 7 6 6 6 6 6 6 6 6 5 5 4 3 1
15 14 17 18 21 21 20 20 22 22 21 18 16 16 15 15 15 14 14 14 14 13 13 13 12 10 9 8 8 7 7 6 7 7 7 7 6 5 5 4 4 2 2 1
13 15 15 16 17 17 19 22 21 20 21 18 17 15 15 15 14 13 13 13 13 12 11 11 12 10 9 8 8 7 7 6 6 6 5 5 4 4 3 2 2 1 1 -0
14 16 17 17 19 17 17 17 20 20 21 19 16 15 15 14 13 12 12 12 12 11 9 8 8 8 8 8 8 6 5 5 4 4 3 2 2 1 1 0 0 -0 -1 -2
14 17 17 17 17 18 18 17 17 19 20 20 18 15 15 13 12 12 11 11 8 7 7 5 3 4 6 6 5 4 2 2 2 2 2 1 1 -1 -1 -1 -2 -2 -3 -3
18 19 16 15 15 16 16 15 15 16 17 18 17 14 13 12 12 10 8 7 6 4 2 0 0 0 2 3 3 2 1 0 0 -0 -1 -1 -2 -3 -4 -4 -4 -4 -5 -5
18 15 16 16 14 14 13 14 14 14 13 13 13 12 11 10 9 8 6 4 1 0 -1 -1 -2 -2 -0 0 1 -0 -1 -1 -3 -4 -4 -4 -4 -4 -4 -4 -4 -4 -5 -5
15 15 14 13 13 12 13 12 11 11 10 10 10 9 9 7 6 4 1 -1 -2 -2 -2 -3 -4 -5 -2 -2 -2 -3 -4 -4 -5 -5 -6 -6 -6 -6 -6 -5 -5 -5 -5 -6
14 14 13 12 12 12 11 11 10 7 2 2 1 -0 -1 -2 -2 -3 -3 -2 -3 -5 -6 -6 -6 -5 -5 -4 -5 -6 -6 -7 -6 -7 -7 -7 -7 -7 -6 -6 -7 -7 -7 -8
12 12 11 11 9 7 5 4 3 2 1 -1 -2 -2 -3 -3 -4 -5 -6 -6 -6 -7 -7 -7 -8 -7 -7 -7 -7 -7 -7 -8 -7 -7 -7 -7 -7 -8 -8 -8 -8 -8 -8 -9
6 9 10 7 5 2 1 0 -1 -2 -3 -3 -3 -4 -4 -5 -6 -7 -7 -7 -8 -8 -8 -8 -8 -8 -8 -8 -8 -8 -8 -8 -8 -8 -8 -8 -9 -9 -9 -9 -9 -10 -10 -10
3 2 1 1 0 -1 -1 -2 -3 -3 -3 -4 -5 -5 -6 -6 -7 -7 -7 -8 -8 -8 -9 -9 -9 -9 -9 -8 -8 -9 -9 -9 -9 -9 -9 -9 -9 -10 -10 -10 -10 -11 -11 -12
0 -0 -1 -1 -2 -2 -3 -3 -4 -4 -5 -5 -6 -5 -6 -7 -7 -7 -8 -8 -8 -9 -8 -8 -9 -9 -9 -9 -9 -9 -9 -10 -10 -10 -10 -11 -11 -11 -11 -11 -12 -12 -13 -13
-1 -1 -2 -2 -2 -3 -3 -4 -4 -5 -5 -6 -6 -6 -6 -7 -7 -8 -8 -8 -8 -8 -8 -9 -10 -10 -10 -10 -10 -10 -11 -11 -11 -12 -12 -12 -12 -13 -13 -13 -13 -14 -14 -14
-2 -2 -3 -3 -4 -4 -5 -5 -5 -6 -6 -6 -6 -6 -7 -7 -7 -8 -8 -9 -9 -9 -10 -11 -11 -11 -11 -12 -12 -12 -12 -13 -13 -13 -13 -14 -14 -14 -14 -14 -14 -15 -15 -15
-3 -4 -4 -4 -4 -5 -5 -6 -6 -6 -6 -6 -7 -8 -8 -7 -7 -8 -9 -10 -10 -10 -11 -12 -12 -12 -13 -13 -13 -13 -14 -14 -14 -14 -15 -15 -15 -16 -16 -16 -16 -16 -16 -17
-4 -4 -5 -5 -5 -5 -5 -6 -6 -7 -7 -8 -8 -7 -8 -9 -10 -11 -11 -11 -11 -12 -12 -13 -13 -14 -14 -14 -15 -15 -15 -15 -16 -16 -16 -16 -17 -17 -17 -17 -18 -18 -18 -18
-4 -5 -5 -4 -4 -5 -5 -6 -7 -7 -8 -9 -9 -9 -9 -10 -11 -11 -11 -12 -12 -13 -14 -14 -14 -15 -15 -16 -16 -16 -16 -17 -17 -17 -18 -18 -18 -18 -19 -19 -19 -20 -20 -20
-5 -5 -6 -6 -6 -6 -6 -6 -7 -8 -9 -9 -10 -10 -11 -11 -12 -12 -12 -13 -13 -14 -15 -15 -16 -16 -16 -17 -17 -17 -18 -18 -18 -18 -19 -19 -19 -20 -20 -20 -21 -21 -21 -22
-7 -7 -7 -8 -8 -9 -9 -9 -9 -9 -10 -11 -11 -12 -12 -12 -13 -13 -14 -14 -14 -15 -15 -16 -16 -17 -17 -18 -18 -18 -18 -19 -19 -20 -20 -20 -21 -21 -21 -22 -22 -22 -23 -22

GFSNGP_925_temp_078.txt.gz
Temp
20 20 20 20 20 23 22 20 20 21 20 21 22 22 22 22 21 21 21 21 20 19 16 15 14 16 17 17 17 17 17 17 14 13 12 12 12 12 12 12 11 11 10 9
16 18 19 19 21 22 22 21 21 21 20 22 23 20 23 22 21 21 21 20 20 18 16 14 12 11 11 11 11 13 12 12 11 11 10 10 11 10 10 10 9 8 8 8
15 18 19 15 18 21 21 21 21 20 20 22 23 22 21 21 20 21 21 19 19 18 16 13 11 10 10 10 10 10 10 9 9 9 9 9 9 9 8 8 7 7 6 6
13 15 14 17 20 22 22 22 21 22 22 21 22 22 21 21 20 20 19 18 16 14 11 10 9 9 9 9 9 9 9 8 8 9 9 8 7 7 7 7 6 6 6 5
14 15 16 18 20 21 21 21 21 22 22 23 23 21 22 21 20 19 17 15 13 12 10 9 9 9 8 8 8 8 7 7 7 7 6 6 6 6 6 6 6 5 5 5
12 15 13 18 19 21 21 18 21 22 22 23 20 18 18 20 19 16 14 14 12 11 10 10 9 9 8 8 8 7 7 6 6 6 6 6 6 6 6 6 6 5 4 4
10 12 13 17 19 21 19 17 20 23 22 21 20 18 19 17 17 15 14 12 11 10 10 9 9 9 8 8 7 7 6 6 6 5 5 5 5 6 5 5 5 5 4 2
11 12 13 16 18 20 18 18 20 22 22 21 19 16 15 15 14 14 12 11 11 10 9 9 9 9 8 8 7 6 6 5 5 5 5 6 6 5 5 5 4 2 1 -0
13 13 15 15 16 16 16 19 20 19 20 19 16 16 15 14 13 12 11 11 11 10 9 10 9 9 8 7 7 7 6 5 5 6 6 5 5 4 4 3 2 1 -0 -2
13 15 15 16 15 16 17 17 18 19 19 17 17 15 14 13 12 11 11 10 10 10 9 8 9 8 8 7 7 7 5 5 4 4 4 4 4 3 3 2 2 1 -1 -3
13 15 15 15 16 16 16 17 18 19 20 17 16 14 13 12 11 11 10 10 9 7 6 5 7 6 6 6 6 4 3 3 2 3 2 1 0 -0 -0 -1 0 -0 -2 -2
12 15 15 16 18 17 16 17 17 19 19 18 16 13 13 11 11 10 7 6 3 3 2 2 2 2 3 3 4 2 1 1 1 0 -0 -1 -1 -2 -2 -2 -2 -2 -3 -3
16 16 15 16 15 16 14 14 14 14 15 17 14 12 12 9 8 6 3 2 1 0 -0 -1 -1 -1 1 2 3 1 -1 -1 -1 -1 -2 -3 -4 -4 -4 -4 -4 -4 -4 -5
15 15 15 14 14 13 13 11 10 10 9 10 10 9 7 6 3 2 0 -0 -1 -2 -3 -3 -4 -4 -3 -0 0 -2 -3 -4 -3 -4 -4 -4 -5 -5 -5 -5 -5 -5 -6 -6
14 13 14 12 12 11 10 9 6 4 4 3 7 6 3 1 -0 -1 -2 -3 -4 -4 -4 -4 -5 -5 -3 -3 -3 -3 -3 -4 -5 -5 -6 -6 -6 -7 -7 -7 -7 -6 -6 -6
12 12 11 11 11 10 7 5 4 2 1 -0 -1 -1 -2 -2 -3 -4 -4 -4 -4 -6 -6 -6 -6 -6 -5 -4 -5 -5 -6 -6 -7 -7 -7 -7 -7 -8 -8 -8 -8 -8 -8 -8
10 10 9 7 6 4 3 2 1 0 -1 -1 -2 -3 -3 -4 -5 -6 -7 -7 -7 -8 -7 -7 -7 -7 -6 -7 -7 -7 -8 -8 -8 -8 -8 -8 -8 -9 -9 -9 -9 -9 -9 -10
7 7 7 5 2 1 -1 -1 -2 -2 -3 -3 -4 -5 -5 -6 -7 -7 -8 -8 -8 -8 -9 -8 -8 -8 -8 -8 -8 -8 -8 -8 -8 -9 -9 -9 -9 -10 -10 -10 -11 -11 -11 -11
2 2 1 1 -0 -1 -2 -3 -3 -4 -5 -5 -5 -6 -6 -7 -7 -8 -8 -8 -8 -9 -10 -9 -9 -9 -9 -9 -9 -9 -9 -9 -10 -10 -11 -11 -11 -11 -11 -12 -12 -12 -13 -13
-1 -1 -2 -2 -2 -3 -4 -4 -4 -5 -5 -6 -6 -6 -7 -7 -8 -8 -8 -9 -9 -9 -9 -10 -9 -10 -10 -10 -10 -11 -11 -11 -12 -12 -12 -13 -13 -13 -13 -14 -14 -14 -14 -14
-2 -2 -3 -3 -4 -4 -4 -5 -5 -5 -6 -6 -6 -7 -8 -8 -8 -8 -8 -9 -11 -10 -10 -11 -11 -11 -11 -12 -12 -12 -13 -13 -13 -14 -14 -15 -15 -15 -15 -15 -15 -15 -16 -16
-3 -3 -4 -4 -4 -5 -5 -5 -6 -6 -6 -7 -7 -8 -8 -9 -9 -10 -10 -11 -12 -11 -12 -12 -13 -12 -13 -13 -13 -14 -14 -15 -15 -15 -15 -16 -16 -17 -17 -17 -17 -17 -17 -17
-4 -4 -5 -5 -5 -6 -6 -7 -7 -7 -7 -8 -7 -8 -8 -8 -9 -10 -11 -12 -12 -12 -13 -13 -13 -14 -14 -14 -15 -15 -16 -16 -16 -17 -17 -17 -18 -18 -18 -18 -19 -19 -19 -19
-5 -5 -5 -5 -6 -6 -6 -7 -7 -8 -8 -9 -9 -10 -10 -11 -12 -12 -12 -13 -13 -13 -14 -14 -15 -15 -15 -16 -16 -17 -17 -17 -18 -18 -18 -18 -19 -19 -19 -20 -20 -21 -21 -21
-5 -5 -5 -6 -6 -7 -7 -8 -8 -9 -9 -10 -11 -11 -12 -12 -12 -13 -13 -14 -14 -14 -15 -16 -16 -16 -17 -17 -17 -18 -18 -18 -19 -19 -19 -20 -20 -20 -21 -21 -21 -22 -22 -22
-6 -6 -6 -6 -6 -7 -8 -8 -9 -10 -11 -11 -12 -12 -13 -13 -13 -13 -14 -14 -15 -15 -16 -17 -17 -17 -18 -18 -18 -19 -19 -19 -20 -20 -20 -21 -21 -21 -22 -22 -22 -23 -23 -23
-8 -8 -8 -9 -9 -9 -9 -10 -11 -12 -12 -13 -13 -13 -13 -14 -14 -15 -15 -16 -16 -17 -17 -17 -18 -18 -19 -19 -19 -20 -20 -20 -20 -21 -21 -21 -22 -22 -22 -23 -23 -23 -24 -24